Regional Weather Roundup
Issued by NWS

Home | Current Version | Previous Version | Graphics & Text | Print | Product List | Glossary On
Versions: 1 2 3 4 5 6 7 8 9 10 11 12 13 14 15 16 17 18 19 20 21 22 23 24 25 26 27 28 29 30 31 32 33 34 35 36 37 38 39 40 41 42 43 44 45 46 47 48 49 50
000
ASUS43 KIND 312109
RWRIN

WEATHER ROUNDUP FOR INDIANA
NATIONAL WEATHER SERVICE INDIANAPOLIS IN
500 PM EDT THU JUL 31 2014

NOTE: "FAIR" INDICATES FEW OR NO CLOUDS BELOW 12,000 FEET WITH NO
SIGNIFICANT WEATHER AND/OR OBSTRUCTIONS TO VISIBILITY.

* - STATION DOES NOT REPORT WEATHER SUCH AS PRECIPITATION OR FOG.

+ - STATION NOT QUALITY CONTROLLED BY THE NATIONAL WEATHER SERVICE.
    USE DATA WITH CAUTION...ESPECIALLY DEWPOINT AND RELATIVE
    HUMIDITY OBSERVATIONS.

INZ001>003-010>013-019-020-312200-
NORTHWEST INDIANA

CITY           SKY/WX    TMP DP  RH WIND       PRES   REMARKS
GARY /AIRPORT/ PTSUNNY   82  57  42 W17       30.03F
KNOX *+        MOSUNNY   81  57  42 W10       30.03S
LA PORTE +     PTSUNNY   71  61  70 W9        30.05S
MICHIGAN CITY+ SUNNY     79  55  44 W7        30.03F
MONTICELLO +   SUNNY     79  63  57 W6        30.06S
RENSSELAER +   MOSUNNY   79  61  53 SW9       30.06F
VALPARAISO     MOSUNNY   81  59  47 W15G22    30.04F

$$

LMZ046-743>745-312200-
SOUTHERN LAKE MICHIGAN

STATION/POSITION TIME  TEMP WIND        PRES
                       AIR  DIR/SP/G
                 (UTC) (F)  (DEG/KT/KT) (MB)
BURNS HARBOR     2000   76  290/  3/  4   N/A
MICHIGAN CITY    2100   76  230/  4/  5   N/A

$$

INZ004-005-014>016-021>024-312200-
NORTH CENTRAL INDIANA

CITY           SKY/WX    TMP DP  RH WIND       PRES   REMARKS
ELKHART        MOSUNNY   82  52  34 W9        30.04F
GOSHEN         MOSUNNY   81  59  47 SW13      30.04F
LOGANSPORT +   MOSUNNY   79  59  50 W7        30.07F
PERU/GRISSOM   SUNNY     80  61  51 W10       30.07S
ROCHESTER +    MOSUNNY   82  57  42 SW12      30.06F
SOUTH BEND     SUNNY     82  55  39 W10       30.04F
WARSAW +       MOSUNNY   79  59  50 W9        30.05S

$$

INZ006>009-017-018-025>027-312200-
NORTHEAST INDIANA

CITY           SKY/WX    TMP DP  RH WIND       PRES   REMARKS
ANGOLA *+      PTSUNNY   75  70  83 W5        30.04F
AUBURN +       SUNNY     81  55  41 W8        30.05F
FORT WAYNE     PTSUNNY   79  58  48 W9        30.06F
HUNTINGTON +   MOSUNNY   80  60  48 W8G17     30.05F

$$

INZ028-029-035-036-043>045-051>053-312200-
WEST CENTRAL INDIANA

CITY           SKY/WX    TMP DP  RH WIND       PRES   REMARKS
GREENCASTLE +  PTSUNNY   79  59  50 W5        30.09S
LAFAYETTE      MOSUNNY   80  58  46 W6        30.06F
TERRE HAUTE    MOSUNNY   80  59  48 SW5       30.07F

$$

INZ030>032-037>040-046>048-054>057-064-065-312200-
CENTRAL INDIANA

CITY           SKY/WX    TMP DP  RH WIND       PRES   REMARKS
CP ATTERBURY + MOSUNNY   81  54  39 CALM      30.08F
COLUMBUS       SUNNY     81  59  47 CALM      30.08S
GREENWOOD *+   MOSUNNY   81  63  54 W7        30.08F
INDIANAPOLIS   MOSUNNY   80  59  48 W8        30.07F
-EAGLE CREEK   SUNNY     79  56  45 VRB7      30.07F
KOKOMO *+      SUNNY     81  59  47 NW9       30.07F
MARION +       SUNNY     79  56  46 W9        30.08F
MT COMFORT *+  SUNNY     81  61  50 NW5       30.08F
SHELBYVILLE    PTSUNNY   81  61  50 W3        30.07F
ZIONSVILLE +   MOSUNNY   79  56  45 W8        30.09F

$$

INZ033-034-041-042-049-050-058-059-312200-
EAST CENTRAL INDIANA

CITY           SKY/WX    TMP DP  RH WIND       PRES   REMARKS
MUNCIE         MOSUNNY   80  55  42 W10       30.08F

$$

INZ060-061-067>069-081>083-085>088-312200-
SOUTHWEST INDIANA

CITY           SKY/WX    TMP DP  RH WIND       PRES   REMARKS
EVANSVILLE     SUNNY     83  55  38 CALM      30.07F
WASHINGTON +   MOSUNNY   78  64  63 NW3       30.07S

$$

INZ062-063-066-070>080-084-089>092-312200-
SOUTH CENTRAL AND SOUTHEAST INDIANA

CITY           SKY/WX    TMP DP  RH WIND       PRES   REMARKS
BEDFORD +      PTSUNNY   82  54  36 SW7       30.08
BLOOMINGTON    MOSUNNY   80  61  52 W7        30.09S
SEYMOUR +      SUNNY     79  41  25 W5        30.07

$$



USA.gov is the U.S. government's official web portal to all federal, state and local government web resources and services.